Time,TemperatureF,DewpointF,PressureIn,WindDirection,WindDirectionDegrees,WindSpeedMPH,WindSpeedGustMPH,Humidity,HourlyPrecipIn,Conditions,Clouds,dailyrainin,SoftwareType,DateUTC
2013-03-24 17:31:00,-3.6,-12.2,30.04,NNE,23,0.0,0.0,66,0.00,,,0.00,WUHU216HW,2013-03-25 01:31:00,
2013-03-24 17:36:00,-3.6,-12.2,30.04,NNE,23,0.0,0.0,66,0.00,,,0.00,WUHU216HW,2013-03-25 01:36:00,
2013-03-24 17:41:00,10.1,2.2,29.81,WSW,248,0.7,1.1,70,0.00,,,0.00,WUHU216HW,2013-03-25 01:41:00,
2013-03-24 17:46:00,9.7,1.9,29.81,WSW,248,0.0,1.8,70,0.00,,,0.00,WUHU216HW,2013-03-25 01:46:00,
2013-03-24 17:51:00,9.7,2.4,29.81,NNW,338,0.4,1.8,72,0.00,,,0.00,WUHU216HW,2013-03-25 01:51:00,
2013-03-24 17:56:00,9.7,2.4,29.81,WSW,248,1.1,1.1,72,0.00,,,0.00,WUHU216HW,2013-03-25 01:56:00,
2013-03-24 18:01:00,9.5,2.6,29.81,NNW,338,0.2,1.1,73,0.00,,,0.00,WUHU216HW,2013-03-25 02:01:00,
2013-03-24 18:07:00,9.7,2.4,29.81,South,180,0.0,1.1,72,0.00,,,0.00,WUHU216HW,2013-03-25 02:07:00,
2013-03-24 18:11:00,9.7,2.4,29.80,WSW,248,0.4,0.4,72,0.00,,,0.00,WUHU216HW,2013-03-25 02:11:00,
2013-03-24 18:16:00,9.4,1.8,29.81,West,270,0.4,1.8,71,0.00,,,0.00,WUHU216HW,2013-03-25 02:16:00,
2013-03-24 18:22:00,9.2,1.7,29.80,West,270,0.0,1.8,71,0.00,,,0.00,WUHU216HW,2013-03-25 02:22:00,
2013-03-24 18:27:00,9.2,2.0,29.80,NW,322,0.3,0.4,72,0.00,,,0.00,WUHU216HW,2013-03-25 02:27:00,
2013-03-24 18:32:00,9.4,2.2,29.80,SW,225,0.0,0.4,72,0.00,,,0.00,WUHU216HW,2013-03-25 02:32:00,
2013-03-24 18:37:00,9.4,2.2,29.80,SE,135,0.4,0.4,72,0.00,,,0.00,WUHU216HW,2013-03-25 02:37:00,
2013-03-24 18:42:00,9.0,2.1,29.80,SE,135,0.0,0.7,73,0.00,,,0.00,WUHU216HW,2013-03-25 02:42:00,
2013-03-24 18:47:00,8.8,2.3,29.80,SSE,158,0.4,0.7,74,0.00,,,0.00,WUHU216HW,2013-03-25 02:47:00,
2013-03-24 18:52:00,8.5,1.9,29.80,South,180,0.0,0.9,74,0.00,,,0.00,WUHU216HW,2013-03-25 02:52:00,
2013-03-24 19:04:00,8.5,2.4,29.81,South,180,0.2,0.2,76,0.00,,,0.00,WUHU216HW,2013-03-25 03:04:00,
2013-03-24 19:09:00,8.3,2.0,29.80,SSE,158,0.2,0.2,75,0.00,,,0.00,WUHU216HW,2013-03-25 03:09:00,
2013-03-24 19:14:00,8.1,2.3,29.80,SE,135,0.4,0.4,77,0.00,,,0.00,WUHU216HW,2013-03-25 03:14:00,
2013-03-24 19:20:00,8.1,2.3,29.80,SSE,158,0.4,0.4,77,0.00,,,0.00,WUHU216HW,2013-03-25 03:20:00,
2013-03-24 19:25:00,7.7,2.0,29.80,SSE,158,0.0,0.4,77,0.00,,,0.00,WUHU216HW,2013-03-25 03:25:00,
2013-03-24 19:30:00,7.7,2.0,29.80,SSE,158,0.0,0.4,77,0.00,,,0.00,WUHU216HW,2013-03-25 03:30:00,